Location: Zagreb
(45.8000°N, 16.0000°E)
Time: 15:14:28
(UTC+02:00)

Vanguard 1 - Pass Details

Date: 08 August 2022
Orbit: 649 x 3832 km, 34.2° (Epoch: 25 September)

Event Time Altitude Azimuth Distance (km) Brightness Sun altitude
Rises 07:20:14 0° 248° (WSW) 6,683 13.7 14.7°
Reaches altitude 10° 07:24:12 10° 245° (WSW) 5,990 13.5 15.4°
Maximum altitude 07:44:18 60° 172° (S) 4,158 13.5 18.8°
Drops below altitude 10° 08:06:09 10° 101° (E) 6,442 16.1 22.6°
Sets 08:10:37 0° 98° (E) 7,187 15.9 23.4°
